Time,TemperatureF,DewpointF,PressureIn,WindDirection,WindDirectionDegrees,WindSpeedMPH,WindSpeedGustMPH,Humidity,HourlyPrecipIn,Conditions,Clouds,dailyrainin,SoftwareType,DateUTC
2013-10-22 00:13:00,29.0,25.0,29.96,NNW,329,0.0,0.0,85,0.00,,,0.00,,2013-10-22 05:13:00,
2013-10-22 00:22:00,29.0,25.0,29.96,NNW,329,0.0,0.0,86,0.00,,,0.00,,2013-10-22 05:22:00,
2013-10-22 00:52:00,29.0,26.0,29.97,NNW,329,0.0,0.0,89,0.00,,,0.00,,2013-10-22 05:52:00,
2013-10-22 01:12:00,29.0,26.0,29.97,NNW,329,0.0,0.0,89,0.00,,,0.00,,2013-10-22 06:12:00,
2013-10-22 01:22:00,29.0,26.0,29.97,NNW,329,0.0,0.0,89,0.00,,,0.00,,2013-10-22 06:22:00,
2013-10-22 01:42:00,29.0,26.0,29.97,NNW,329,0.0,0.0,88,0.00,,,0.00,,2013-10-22 06:42:00,
2013-10-22 01:53:00,29.0,26.0,29.97,NNW,329,0.0,0.0,88,0.00,,,0.00,,2013-10-22 06:53:00,
2013-10-22 02:12:00,28.0,25.0,29.97,NNW,329,0.0,0.0,89,0.00,,,0.00,,2013-10-22 07:12:00,
2013-10-22 02:22:00,28.0,25.0,29.97,NNW,329,0.0,0.0,89,0.00,,,0.00,,2013-10-22 07:22:00,
2013-10-22 02:42:00,28.0,25.0,29.98,NNW,329,0.0,0.0,90,0.00,,,0.00,,2013-10-22 07:42:00,
2013-10-22 02:52:00,28.0,26.0,29.98,NNW,329,0.0,0.0,91,0.00,,,0.00,,2013-10-22 07:52:00,
2013-10-22 03:12:00,28.0,26.0,29.97,NNW,329,0.0,0.0,91,0.00,,,0.00,,2013-10-22 08:12:00,
2013-10-22 03:22:00,28.0,26.0,29.98,NNW,328,0.0,0.0,91,0.00,,,0.00,,2013-10-22 08:22:00,
2013-10-22 03:42:00,28.0,26.0,29.98,WSW,250,0.0,0.0,92,0.00,,,0.00,,2013-10-22 08:42:00,
2013-10-22 03:52:00,28.0,26.0,29.98,WSW,246,0.0,0.0,91,0.00,,,0.00,,2013-10-22 08:52:00,
2013-10-22 04:11:00,29.0,27.0,29.98,WSW,246,0.0,0.0,91,0.00,,,0.00,,2013-10-22 09:11:00,
2013-10-22 04:21:00,29.0,26.0,29.98,WSW,246,0.0,0.0,90,0.00,,,0.00,,2013-10-22 09:21:00,
2013-10-22 04:43:00,28.0,25.0,29.98,WSW,246,0.0,0.0,90,0.00,,,0.00,,2013-10-22 09:43:00,
2013-10-22 04:53:00,28.0,25.0,29.98,WSW,246,0.0,0.0,90,0.00,,,0.00,,2013-10-22 09:53:00,
2013-10-22 05:13:00,28.0,26.0,29.98,WSW,246,0.0,0.0,91,0.00,,,0.00,,2013-10-22 10:13:00,
2013-10-22 05:23:00,28.0,25.0,29.97,WSW,246,0.0,0.0,90,0.00,,,0.00,,2013-10-22 10:23:00,
2013-10-22 05:43:00,27.0,24.0,29.97,WSW,246,0.0,0.0,90,0.00,,,0.00,,2013-10-22 10:43:00,
2013-10-22 05:53:00,27.0,25.0,29.97,WSW,246,0.0,0.0,91,0.00,,,0.00,,2013-10-22 10:53:00,
2013-10-22 06:12:00,27.0,25.0,29.98,WSW,246,0.0,0.0,92,0.00,,,0.00,,2013-10-22 11:12:00,
2013-10-22 06:22:00,27.0,25.0,29.98,WSW,246,0.0,0.0,92,0.00,,,0.00,,2013-10-22 11:22:00,
2013-10-22 06:42:00,26.0,24.0,29.98,WSW,246,0.0,0.0,92,0.00,,,0.00,,2013-10-22 11:42:00,
2013-10-22 06:52:00,27.0,25.0,29.98,WSW,246,0.0,0.0,93,0.00,,,0.00,,2013-10-22 11:52:00,
2013-10-22 07:11:00,27.0,25.0,29.98,WSW,246,0.0,0.0,93,0.00,,,0.00,,2013-10-22 12:11:00,
2013-10-22 07:22:00,27.0,25.0,29.97,WSW,246,0.0,0.0,93,0.00,,,0.00,,2013-10-22 12:22:00,
2013-10-22 07:42:00,27.0,25.0,29.97,WSW,246,0.0,0.0,93,0.00,,,0.00,,2013-10-22 12:42:00,
2013-10-22 07:52:00,27.0,25.0,29.98,WSW,246,0.0,0.0,93,0.00,,,0.00,,2013-10-22 12:52:00,
2013-10-22 08:12:00,26.0,24.0,29.98,WSW,246,0.0,0.0,92,0.00,,,0.00,,2013-10-22 13:12:00,
2013-10-22 08:21:00,26.0,24.0,29.98,WSW,246,0.0,0.0,93,0.00,,,0.00,,2013-10-22 13:21:00,
2013-10-22 08:42:00,27.0,26.0,29.98,WSW,246,0.0,0.0,94,0.00,,,0.00,,2013-10-22 13:42:00,
2013-10-22 08:53:00,28.0,27.0,29.98,WSW,246,0.0,0.0,94,0.00,,,0.00,,2013-10-22 13:53:00,
2013-10-22 09:11:00,30.0,28.0,29.98,WSW,246,0.0,0.0,94,0.00,,,0.00,,2013-10-22 14:11:00,
2013-10-22 09:21:00,31.0,29.0,29.98,WSW,246,0.0,0.0,94,0.00,,,0.00,,2013-10-22 14:21:00,
2013-10-22 09:42:00,33.0,31.0,29.99,WSW,246,0.0,0.0,91,0.00,,,0.00,,2013-10-22 14:42:00,
2013-10-22 09:52:00,34.0,31.0,29.99,WSW,246,0.0,0.0,88,0.00,,,0.00,,2013-10-22 14:52:00,
2013-10-22 10:12:00,37.0,33.0,29.98,South,179,0.0,0.0,85,0.00,,,0.00,,2013-10-22 15:12:00,
2013-10-22 10:22:00,38.0,33.0,29.98,South,179,0.0,0.0,81,0.00,,,0.00,,2013-10-22 15:22:00,
2013-10-22 10:43:00,39.0,31.0,29.97,South,180,0.0,0.0,73,0.00,,,0.00,,2013-10-22 15:43:00,
2013-10-22 10:54:00,40.0,32.0,29.97,South,180,0.0,0.0,72,0.00,,,0.00,,2013-10-22 15:54:00,
2013-10-22 11:13:00,40.0,32.0,29.97,South,180,0.0,0.0,72,0.00,,,0.00,,2013-10-22 16:13:00,
2013-10-22 11:23:00,40.0,31.0,29.97,South,180,0.0,0.0,71,0.00,,,0.00,,2013-10-22 16:23:00,
2013-10-22 11:43:00,40.0,31.0,29.97,South,180,0.0,0.0,70,0.00,,,0.00,,2013-10-22 16:43:00,
2013-10-22 11:53:00,39.0,30.0,29.97,South,181,0.0,0.0,71,0.00,,,0.00,,2013-10-22 16:53:00,
2013-10-22 12:12:00,39.0,30.0,29.97,South,173,0.0,0.0,71,0.00,,,0.00,,2013-10-22 17:12:00,
2013-10-22 12:22:00,39.0,30.0,29.97,South,173,0.0,0.0,70,0.00,,,0.00,,2013-10-22 17:22:00,
2013-10-22 12:43:00,40.0,31.0,29.96,SW,219,0.0,0.0,71,0.00,,,0.00,,2013-10-22 17:43:00,
2013-10-22 12:52:00,40.0,31.0,29.96,South,188,0.0,0.0,71,0.00,,,0.00,,2013-10-22 17:52:00,
2013-10-22 13:12:00,41.0,31.0,29.96,South,188,0.0,0.0,67,0.00,,,0.00,,2013-10-22 18:12:00,
2013-10-22 13:22:00,41.0,29.0,29.95,South,171,0.0,0.0,63,0.00,,,0.00,,2013-10-22 18:22:00,
2013-10-22 13:42:00,41.0,29.0,29.94,SSW,201,0.0,0.0,63,0.00,,,0.00,,2013-10-22 18:42:00,
2013-10-22 13:52:00,41.0,30.0,29.94,SSE,166,0.0,0.0,64,0.00,,,0.00,,2013-10-22 18:52:00,
2013-10-22 14:12:00,41.0,30.0,29.93,South,175,0.0,0.0,64,0.00,,,0.00,,2013-10-22 19:12:00,
2013-10-22 14:22:00,42.0,31.0,29.93,SSW,209,0.0,0.0,64,0.00,,,0.00,,2013-10-22 19:22:00,
2013-10-22 14:42:00,41.0,30.0,29.92,SSW,200,0.0,0.0,64,0.00,,,0.00,,2013-10-22 19:42:00,
2013-10-22 14:52:00,41.0,29.0,29.92,SSW,200,0.0,0.0,63,0.00,,,0.00,,2013-10-22 19:52:00,
2013-10-22 15:11:00,42.0,31.0,29.92,South,187,0.0,0.0,65,0.00,,,0.00,,2013-10-22 20:11:00,
2013-10-22 15:22:00,42.0,31.0,29.91,South,186,0.0,0.0,65,0.00,,,0.00,,2013-10-22 20:22:00,
2013-10-22 15:43:00,42.0,30.0,29.91,South,189,0.0,0.0,63,0.00,,,0.00,,2013-10-22 20:43:00,
2013-10-22 15:52:00,42.0,30.0,29.91,South,189,0.0,0.0,63,0.00,,,0.00,,2013-10-22 20:52:00,
2013-10-22 16:12:00,43.0,31.0,29.91,South,190,0.0,0.0,62,0.00,,,0.00,,2013-10-22 21:12:00,
2013-10-22 16:23:00,43.0,31.0,29.92,South,190,0.0,0.0,62,0.00,,,0.00,,2013-10-22 21:23:00,
2013-10-22 16:44:00,43.0,31.0,29.92,South,191,0.0,0.0,62,0.00,,,0.00,,2013-10-22 21:44:00,
2013-10-22 16:54:00,43.0,30.0,29.92,SSW,192,0.0,0.0,61,0.00,,,0.00,,2013-10-22 21:54:00,
2013-10-22 17:14:00,43.0,31.0,29.93,SSW,192,0.0,0.0,63,0.00,,,0.00,,2013-10-22 22:14:00,
2013-10-22 17:24:00,43.0,30.0,29.93,SSW,192,0.0,0.0,61,0.00,,,0.00,,2013-10-22 22:24:00,
2013-10-22 17:44:00,43.0,32.0,29.93,SSW,193,0.0,0.0,64,0.00,,,0.00,,2013-10-22 22:44:00,
2013-10-22 17:54:00,42.0,31.0,29.93,SSW,193,0.0,0.0,64,0.00,,,0.00,,2013-10-22 22:54:00,
2013-10-22 18:12:00,42.0,31.0,29.93,SSW,193,0.0,0.0,64,0.00,,,0.00,,2013-10-22 23:12:00,
2013-10-22 18:23:00,42.0,31.0,29.93,SSW,193,0.0,0.0,65,0.00,,,0.00,,2013-10-22 23:23:00,
2013-10-22 18:43:00,41.0,31.0,29.93,SSW,193,0.0,0.0,67,0.00,,,0.00,,2013-10-22 23:43:00,
2013-10-22 18:53:00,40.0,30.0,29.93,SSW,193,0.0,0.0,68,0.00,,,0.00,,2013-10-22 23:53:00,
2013-10-22 19:11:00,39.0,31.0,29.94,SSW,193,0.0,0.0,73,0.00,,,0.00,,2013-10-23 00:11:00,
2013-10-22 19:22:00,38.0,31.0,29.94,SSW,193,0.0,0.0,75,0.00,,,0.00,,2013-10-23 00:22:00,
2013-10-22 19:42:00,37.0,31.0,29.94,SSW,193,0.0,0.0,80,0.00,,,0.00,,2013-10-23 00:42:00,
2013-10-22 19:52:00,37.0,32.0,29.94,SSW,193,0.0,0.0,82,0.00,,,0.00,,2013-10-23 00:52:00,
2013-10-22 20:11:00,36.0,32.0,29.95,SSW,193,0.0,0.0,85,0.00,,,0.00,,2013-10-23 01:11:00,
2013-10-22 20:23:00,35.0,32.0,29.95,SSW,193,0.0,0.0,87,0.00,,,0.00,,2013-10-23 01:23:00,
2013-10-22 20:42:00,35.0,32.0,29.95,SSW,193,0.0,0.0,89,0.00,,,0.00,,2013-10-23 01:42:00,
2013-10-22 20:52:00,35.0,33.0,29.95,SSW,193,0.0,0.0,91,0.00,,,0.00,,2013-10-23 01:52:00,
2013-10-22 21:11:00,34.0,32.0,29.95,SSW,193,0.0,0.0,91,0.00,,,0.00,,2013-10-23 02:11:00,
2013-10-22 21:22:00,34.0,32.0,29.95,SSW,193,0.0,0.0,91,0.00,,,0.00,,2013-10-23 02:22:00,
2013-10-22 21:42:00,33.0,31.0,29.95,SSW,193,0.0,0.0,91,0.00,,,0.00,,2013-10-23 02:42:00,
2013-10-22 21:53:00,33.0,31.0,29.95,SSW,193,0.0,0.0,91,0.00,,,0.00,,2013-10-23 02:53:00,
2013-10-22 22:12:00,33.0,31.0,29.95,SSW,193,0.0,0.0,93,0.00,,,0.00,,2013-10-23 03:12:00,
2013-10-22 22:22:00,33.0,31.0,29.95,SSW,193,0.0,0.0,93,0.00,,,0.00,,2013-10-23 03:22:00,
2013-10-22 22:44:00,32.0,30.0,29.95,SSW,193,0.0,0.0,92,0.00,,,0.00,,2013-10-23 03:44:00,
2013-10-22 22:55:00,31.0,29.0,29.95,SSW,193,0.0,0.0,92,0.00,,,0.00,,2013-10-23 03:55:00,
2013-10-22 23:14:00,31.0,29.0,29.95,SSW,193,0.0,0.0,93,0.00,,,0.00,,2013-10-23 04:14:00,
2013-10-22 23:24:00,30.0,28.0,29.95,SSW,193,0.0,0.0,93,0.00,,,0.00,,2013-10-23 04:24:00,
2013-10-22 23:45:00,30.0,28.0,29.95,SSW,193,0.0,0.0,93,0.00,,,0.00,,2013-10-23 04:45:00,
2013-10-22 23:54:00,30.0,28.0,29.95,SSW,193,0.0,0.0,93,0.00,,,0.00,,2013-10-23 04:54:00,